Year,Month,Day,Hour,Minute,Value (Times are PST for temperature in C)
2007,08,09,00,00,12.00
2007,08,09,00,01,12.00
2007,08,09,00,02,12.10
2007,08,09,00,03,12.10
2007,08,09,00,04,12.10
2007,08,09,00,05,12.10
2007,08,09,00,06,12.10
2007,08,09,00,07,12.10
2007,08,09,00,08,12.20
2007,08,09,00,09,12.20
2007,08,09,00,10,12.20
2007,08,09,00,11,12.20
2007,08,09,00,12,12.20
2007,08,09,00,13,12.20
2007,08,09,00,14,12.20
2007,08,09,00,15,12.20
2007,08,09,00,16,12.20
2007,08,09,00,17,12.20
2007,08,09,00,18,12.10
2007,08,09,00,19,12.10
2007,08,09,00,20,12.10
2007,08,09,00,21,12.10
2007,08,09,00,22,12.10
2007,08,09,00,23,12.10
2007,08,09,00,24,12.00
2007,08,09,00,25,12.00
2007,08,09,00,26,12.00
2007,08,09,00,27,11.90
2007,08,09,00,28,11.90
2007,08,09,00,29,11.80
2007,08,09,00,30,11.80
2007,08,09,00,31,11.80
2007,08,09,00,32,11.80
2007,08,09,00,33,11.70
2007,08,09,00,34,11.70
2007,08,09,00,35,11.70
2007,08,09,00,36,11.70
2007,08,09,00,37,11.70
2007,08,09,00,38,11.60
2007,08,09,00,39,11.60
2007,08,09,00,40,11.60
2007,08,09,00,41,11.60
2007,08,09,00,42,11.50
2007,08,09,00,43,11.50
2007,08,09,00,44,11.50
2007,08,09,00,45,11.50
2007,08,09,00,46,11.50
2007,08,09,00,47,11.50
2007,08,09,00,48,11.50
2007,08,09,00,49,11.50
2007,08,09,00,50,11.50
2007,08,09,00,51,11.60
2007,08,09,00,52,11.60
2007,08,09,00,53,11.50
2007,08,09,00,54,11.50
2007,08,09,00,55,11.50
2007,08,09,00,56,11.40
2007,08,09,00,57,11.40
2007,08,09,00,58,11.40
2007,08,09,00,59,11.40
2007,08,09,01,00,11.40
2007,08,09,01,01,11.40
2007,08,09,01,02,11.40
2007,08,09,01,03,11.40
2007,08,09,01,04,11.40
2007,08,09,01,05,11.40
2007,08,09,01,06,11.50
2007,08,09,01,07,11.50
2007,08,09,01,08,11.50
2007,08,09,01,09,11.50
2007,08,09,01,10,11.50
2007,08,09,01,11,11.50
2007,08,09,01,12,11.50
2007,08,09,01,13,11.50
2007,08,09,01,14,11.60
2007,08,09,01,15,11.60
2007,08,09,01,16,11.60
2007,08,09,01,17,11.60
2007,08,09,01,18,11.60
2007,08,09,01,19,11.60
2007,08,09,01,20,11.60
2007,08,09,01,21,11.50
2007,08,09,01,22,11.50
2007,08,09,01,23,11.50
2007,08,09,01,24,11.40
2007,08,09,01,25,11.40
2007,08,09,01,26,11.40
2007,08,09,01,27,11.40
2007,08,09,01,28,11.40
2007,08,09,01,29,11.40
2007,08,09,01,30,11.40
2007,08,09,01,31,11.40
2007,08,09,01,32,11.40
2007,08,09,01,33,11.40
2007,08,09,01,34,11.30
2007,08,09,01,35,11.30
2007,08,09,01,36,11.30
2007,08,09,01,37,11.30
2007,08,09,01,38,11.30
2007,08,09,01,39,11.30
2007,08,09,01,40,11.20
2007,08,09,01,41,11.20
2007,08,09,01,42,11.20
2007,08,09,01,43,11.10
2007,08,09,01,44,11.10
2007,08,09,01,45,11.10
2007,08,09,01,46,11.10
2007,08,09,01,47,11.00
2007,08,09,01,48,11.00
2007,08,09,01,49,10.90
2007,08,09,01,50,10.90
2007,08,09,01,51,10.90
2007,08,09,01,52,10.90
2007,08,09,01,53,10.90
2007,08,09,01,54,10.90
2007,08,09,01,55,10.90
2007,08,09,01,56,10.80
2007,08,09,01,57,10.80
2007,08,09,01,58,10.80
2007,08,09,01,59,10.80
2007,08,09,02,00,10.80
2007,08,09,02,01,10.80
2007,08,09,02,02,10.70
2007,08,09,02,03,10.70
2007,08,09,02,04,10.70
2007,08,09,02,05,10.70
2007,08,09,02,06,10.70
2007,08,09,02,07,10.70
2007,08,09,02,08,10.70
2007,08,09,02,09,10.70
2007,08,09,02,10,10.60
2007,08,09,02,11,10.60
2007,08,09,02,12,10.60
2007,08,09,02,13,10.60
2007,08,09,02,14,10.60
2007,08,09,02,15,10.50
2007,08,09,02,16,10.50
2007,08,09,02,17,10.50
2007,08,09,02,18,10.50
2007,08,09,02,19,10.40
2007,08,09,02,20,10.40
2007,08,09,02,21,10.40
2007,08,09,02,22,10.40
2007,08,09,02,23,10.40
2007,08,09,02,24,10.40
2007,08,09,02,25,10.50
2007,08,09,02,26,10.50
2007,08,09,02,27,10.60
2007,08,09,02,28,10.60
2007,08,09,02,29,10.70
2007,08,09,02,30,10.70
2007,08,09,02,31,10.70
2007,08,09,02,32,10.70
2007,08,09,02,33,10.70
2007,08,09,02,34,10.60
2007,08,09,02,35,10.60
2007,08,09,02,36,10.60
2007,08,09,02,37,10.60
2007,08,09,02,38,10.50
2007,08,09,02,39,10.50
2007,08,09,02,40,10.50
2007,08,09,02,41,10.40
2007,08,09,02,42,10.40
2007,08,09,02,43,10.40
2007,08,09,02,44,10.40
2007,08,09,02,45,10.30
2007,08,09,02,46,10.30
2007,08,09,02,47,10.30
2007,08,09,02,48,10.30
2007,08,09,02,49,10.30
2007,08,09,02,50,10.30
2007,08,09,02,51,10.30
2007,08,09,02,52,10.40
2007,08,09,02,53,10.40
2007,08,09,02,54,10.40
2007,08,09,02,55,10.40
2007,08,09,02,56,10.40
2007,08,09,02,57,10.40
2007,08,09,02,58,10.40
2007,08,09,02,59,10.40
2007,08,09,03,00,10.40
2007,08,09,03,01,10.40
2007,08,09,03,02,10.50
2007,08,09,03,03,10.50
2007,08,09,03,04,10.50
2007,08,09,03,05,10.50
2007,08,09,03,06,10.60
2007,08,09,03,07,10.60
2007,08,09,03,08,10.60
2007,08,09,03,09,10.60
2007,08,09,03,10,10.60
2007,08,09,03,11,10.60
2007,08,09,03,12,10.70
2007,08,09,03,13,10.70
2007,08,09,03,14,10.80
2007,08,09,03,15,11.00
2007,08,09,03,16,11.00
2007,08,09,03,17,11.10
2007,08,09,03,18,11.20
2007,08,09,03,19,11.20
2007,08,09,03,20,11.20
2007,08,09,03,21,11.20
2007,08,09,03,22,11.20
2007,08,09,03,23,11.20
2007,08,09,03,24,11.10
2007,08,09,03,25,11.10
2007,08,09,03,26,11.10
2007,08,09,03,27,11.10
2007,08,09,03,28,11.00
2007,08,09,03,29,11.00
2007,08,09,03,30,10.90
2007,08,09,03,31,10.90
2007,08,09,03,32,10.80
2007,08,09,03,33,10.80
2007,08,09,03,34,10.70
2007,08,09,03,35,10.60
2007,08,09,03,36,10.50
2007,08,09,03,37,10.40
2007,08,09,03,38,10.40
2007,08,09,03,39,10.30
2007,08,09,03,40,10.30
2007,08,09,03,41,10.20
2007,08,09,03,42,10.20
2007,08,09,03,43,10.20
2007,08,09,03,44,10.10
2007,08,09,03,45,10.00
2007,08,09,03,46,10.00
2007,08,09,03,47,10.00
2007,08,09,03,48,9.90
2007,08,09,03,49,9.90
2007,08,09,03,50,9.90
2007,08,09,03,51,9.90
2007,08,09,03,52,9.90
2007,08,09,03,53,9.90
2007,08,09,03,54,9.80
2007,08,09,03,55,9.80
2007,08,09,03,56,9.80
2007,08,09,03,57,9.80
2007,08,09,03,58,9.80
2007,08,09,03,59,9.70
2007,08,09,04,00,9.70
2007,08,09,04,01,9.70
2007,08,09,04,02,9.70
2007,08,09,04,03,9.70
2007,08,09,04,04,9.70
2007,08,09,04,05,9.70
2007,08,09,04,06,9.70
2007,08,09,04,07,9.70
2007,08,09,04,08,9.70
2007,08,09,04,09,9.70
2007,08,09,04,10,9.70
2007,08,09,04,11,9.70
2007,08,09,04,12,9.70
2007,08,09,04,13,9.70
2007,08,09,04,14,9.70
2007,08,09,04,15,9.70
2007,08,09,04,16,9.70
2007,08,09,04,17,9.70
2007,08,09,04,18,9.70
2007,08,09,04,19,9.70
2007,08,09,04,20,9.70
2007,08,09,04,21,9.70
2007,08,09,04,22,9.70
2007,08,09,04,23,9.60
2007,08,09,04,24,9.60
2007,08,09,04,25,9.60
2007,08,09,04,26,9.60
2007,08,09,04,27,9.60
2007,08,09,04,28,9.60
2007,08,09,04,29,9.60
2007,08,09,04,30,9.60
2007,08,09,04,31,9.60
2007,08,09,04,32,9.60
2007,08,09,04,33,9.60
2007,08,09,04,34,9.60
2007,08,09,04,35,9.60
2007,08,09,04,36,9.70
2007,08,09,04,37,9.70
2007,08,09,04,38,9.70
2007,08,09,04,39,9.70
2007,08,09,04,40,9.70
2007,08,09,04,41,9.70
2007,08,09,04,42,9.70
2007,08,09,04,43,9.70
2007,08,09,04,44,9.60
2007,08,09,04,45,9.60
2007,08,09,04,46,9.60
2007,08,09,04,47,9.60
2007,08,09,04,48,9.50
2007,08,09,04,49,9.50
2007,08,09,04,50,9.40
2007,08,09,04,51,9.40
2007,08,09,04,52,9.40
2007,08,09,04,53,9.40
2007,08,09,04,54,9.40
2007,08,09,04,55,9.40
2007,08,09,04,56,9.30
2007,08,09,04,57,9.40
2007,08,09,04,58,9.40
2007,08,09,04,59,9.40
2007,08,09,05,00,9.40
2007,08,09,05,01,9.40
2007,08,09,05,02,9.40
2007,08,09,05,03,9.40
2007,08,09,05,04,9.40
2007,08,09,05,05,9.40
2007,08,09,05,06,9.40
2007,08,09,05,07,9.50
2007,08,09,05,08,9.50
2007,08,09,05,09,9.50
2007,08,09,05,10,9.50
2007,08,09,05,11,9.50
2007,08,09,05,12,9.50
2007,08,09,05,13,9.50
2007,08,09,05,14,9.50
2007,08,09,05,15,9.50
2007,08,09,05,16,9.50
2007,08,09,05,17,9.60
2007,08,09,05,18,9.60
2007,08,09,05,19,9.60
2007,08,09,05,20,9.60
2007,08,09,05,21,9.60
2007,08,09,05,22,9.60
2007,08,09,05,23,9.70
2007,08,09,05,24,9.70
2007,08,09,05,25,9.70
2007,08,09,05,26,9.70
2007,08,09,05,27,9.70
2007,08,09,05,28,9.70
2007,08,09,05,29,9.70
2007,08,09,05,30,9.60
2007,08,09,05,31,9.60
2007,08,09,05,32,9.60
2007,08,09,05,33,9.60
2007,08,09,05,34,9.60
2007,08,09,05,35,9.60
2007,08,09,05,36,9.60
2007,08,09,05,37,9.60
2007,08,09,05,38,9.60
2007,08,09,05,39,9.70
2007,08,09,05,40,9.70
2007,08,09,05,41,9.70
2007,08,09,05,42,9.70
2007,08,09,05,43,9.80
2007,08,09,05,44,9.80
2007,08,09,05,45,9.80
2007,08,09,05,46,9.80
2007,08,09,05,47,9.80
2007,08,09,05,48,9.80
2007,08,09,05,49,9.80
2007,08,09,05,50,9.80
2007,08,09,05,51,9.80
2007,08,09,05,52,9.80
2007,08,09,05,53,9.80
2007,08,09,05,54,9.80
2007,08,09,05,55,9.80
2007,08,09,05,56,9.80
2007,08,09,05,57,9.80
2007,08,09,05,58,9.80
2007,08,09,05,59,9.80
2007,08,09,06,00,9.80
2007,08,09,06,01,9.80
2007,08,09,06,02,9.80
2007,08,09,06,03,9.80
2007,08,09,06,04,9.80
2007,08,09,06,05,9.80
2007,08,09,06,06,9.80
2007,08,09,06,07,9.80
2007,08,09,06,08,9.80
2007,08,09,06,09,9.80
2007,08,09,06,10,9.90
2007,08,09,06,11,9.90
2007,08,09,06,12,9.90
2007,08,09,06,13,9.90
2007,08,09,06,14,9.90
2007,08,09,06,15,9.90
2007,08,09,06,16,9.90
2007,08,09,06,17,9.90
2007,08,09,06,18,9.80
2007,08,09,06,19,9.80
2007,08,09,06,20,9.80
2007,08,09,06,21,9.80
2007,08,09,06,22,9.80
2007,08,09,06,23,9.80
2007,08,09,06,24,9.80
2007,08,09,06,25,9.80
2007,08,09,06,26,9.80
2007,08,09,06,27,9.80
2007,08,09,06,28,9.80
2007,08,09,06,29,9.80
2007,08,09,06,30,9.80
2007,08,09,06,31,9.80
2007,08,09,06,32,9.80
2007,08,09,06,33,9.80
2007,08,09,06,34,9.80
2007,08,09,06,35,9.80
2007,08,09,06,36,9.80
2007,08,09,06,37,9.80
2007,08,09,06,38,9.90
2007,08,09,06,39,9.90
2007,08,09,06,40,9.90
2007,08,09,06,41,9.90
2007,08,09,06,42,10.00
2007,08,09,06,43,10.10
2007,08,09,06,44,10.10
2007,08,09,06,45,10.20
2007,08,09,06,46,10.20
2007,08,09,06,47,10.30
2007,08,09,06,48,10.30
2007,08,09,06,49,10.40
2007,08,09,06,50,10.40
2007,08,09,06,51,10.50
2007,08,09,06,52,10.50
2007,08,09,06,53,10.60
2007,08,09,06,54,10.60
2007,08,09,06,55,10.70
2007,08,09,06,56,10.70
2007,08,09,06,57,10.70
2007,08,09,06,58,10.80
2007,08,09,06,59,10.80
2007,08,09,07,00,10.80
2007,08,09,07,01,10.90
2007,08,09,07,02,10.90
2007,08,09,07,03,10.90
2007,08,09,07,04,11.00
2007,08,09,07,05,11.00
2007,08,09,07,06,11.10
2007,08,09,07,07,11.10
2007,08,09,07,08,11.10
2007,08,09,07,09,11.10
2007,08,09,07,10,11.20
2007,08,09,07,11,11.20
2007,08,09,07,12,11.30
2007,08,09,07,13,11.30
2007,08,09,07,14,11.30
2007,08,09,07,15,11.40
2007,08,09,07,16,11.40
2007,08,09,07,17,11.50
2007,08,09,07,18,11.60
2007,08,09,07,19,11.60
2007,08,09,07,20,11.70
2007,08,09,07,21,11.70
2007,08,09,07,22,11.80
2007,08,09,07,23,11.80
2007,08,09,07,24,11.90
2007,08,09,07,25,11.90
2007,08,09,07,26,11.90
2007,08,09,07,27,12.00
2007,08,09,07,28,12.00
2007,08,09,07,29,12.10
2007,08,09,07,30,12.10
2007,08,09,07,31,12.20
2007,08,09,07,32,12.20
2007,08,09,07,33,12.30
2007,08,09,07,34,12.30
2007,08,09,07,35,12.30
2007,08,09,07,36,12.40
2007,08,09,07,37,12.40
2007,08,09,07,38,12.50
2007,08,09,07,39,12.50
2007,08,09,07,40,12.50
2007,08,09,07,41,12.60
2007,08,09,07,42,12.60
2007,08,09,07,43,12.60
2007,08,09,07,44,12.60
2007,08,09,07,45,12.70
2007,08,09,07,46,12.70
2007,08,09,07,47,12.70
2007,08,09,07,48,12.70
2007,08,09,07,49,12.80
2007,08,09,07,50,12.80
2007,08,09,07,51,12.80
2007,08,09,07,52,12.80
2007,08,09,07,53,12.90
2007,08,09,07,54,12.90
2007,08,09,07,55,12.90
2007,08,09,07,56,12.90
2007,08,09,07,57,12.90
2007,08,09,07,58,13.00
2007,08,09,07,59,13.00
2007,08,09,08,00,13.10
2007,08,09,08,01,13.10
2007,08,09,08,02,13.10
2007,08,09,08,03,13.10
2007,08,09,08,04,13.20
2007,08,09,08,05,13.20
2007,08,09,08,06,13.20
2007,08,09,08,07,13.30
2007,08,09,08,08,13.30
2007,08,09,08,09,13.30
2007,08,09,08,10,13.30
2007,08,09,08,11,13.40
2007,08,09,08,12,13.40
2007,08,09,08,13,13.40
2007,08,09,08,14,13.50
2007,08,09,08,15,13.50
2007,08,09,08,16,13.50
2007,08,09,08,17,13.50
2007,08,09,08,18,13.60
2007,08,09,08,19,13.60
2007,08,09,08,20,13.60
2007,08,09,08,21,13.70
2007,08,09,08,22,13.70
2007,08,09,08,23,13.80
2007,08,09,08,24,13.90
2007,08,09,08,25,14.00
2007,08,09,08,26,14.10
2007,08,09,08,27,14.20
2007,08,09,08,28,14.40
2007,08,09,08,29,14.50
2007,08,09,08,30,14.60
2007,08,09,08,31,14.80
2007,08,09,08,32,15.00
2007,08,09,08,33,15.00
2007,08,09,08,34,15.10
2007,08,09,08,35,15.30
2007,08,09,08,36,15.40
2007,08,09,08,37,15.50
2007,08,09,08,38,15.60
2007,08,09,08,39,15.70
2007,08,09,08,40,15.80
2007,08,09,08,41,15.90
2007,08,09,08,42,15.90
2007,08,09,08,43,16.00
2007,08,09,08,44,16.00
2007,08,09,08,45,16.00
2007,08,09,08,46,15.90
2007,08,09,08,47,15.90
2007,08,09,08,48,15.90
2007,08,09,08,49,15.90
2007,08,09,08,50,15.90
2007,08,09,08,51,16.00
2007,08,09,08,52,16.00
2007,08,09,08,53,16.00
2007,08,09,08,54,15.90
2007,08,09,08,55,15.90
2007,08,09,08,56,15.90
2007,08,09,08,57,15.80
2007,08,09,08,58,15.80
2007,08,09,08,59,15.80
2007,08,09,09,00,15.80
2007,08,09,09,01,15.80
2007,08,09,09,02,15.80
2007,08,09,09,03,15.80
2007,08,09,09,04,15.80
2007,08,09,09,05,15.80
2007,08,09,09,06,15.80
2007,08,09,09,07,15.80
2007,08,09,09,08,15.80
2007,08,09,09,09,15.90
2007,08,09,09,10,16.00
2007,08,09,09,11,16.00
2007,08,09,09,12,16.10
2007,08,09,09,13,16.20
2007,08,09,09,14,16.30
2007,08,09,09,15,16.30
2007,08,09,09,16,16.30
2007,08,09,09,17,16.40
2007,08,09,09,18,16.50
2007,08,09,09,19,16.50
2007,08,09,09,20,16.60
2007,08,09,09,21,16.60
2007,08,09,09,22,16.60
2007,08,09,09,23,16.60
2007,08,09,09,24,16.60
2007,08,09,09,25,16.60
2007,08,09,09,26,16.50
2007,08,09,09,27,16.50
2007,08,09,09,28,16.60
2007,08,09,09,29,16.60
2007,08,09,09,30,16.60
2007,08,09,09,31,16.60
2007,08,09,09,32,16.60
2007,08,09,09,33,16.60
2007,08,09,09,34,16.70
2007,08,09,09,35,16.70
2007,08,09,09,36,16.70
2007,08,09,09,37,16.80
2007,08,09,09,38,16.70
2007,08,09,09,39,16.70
2007,08,09,09,40,16.70
2007,08,09,09,41,16.70
2007,08,09,09,42,16.70
2007,08,09,09,43,16.60
2007,08,09,09,44,16.60
2007,08,09,09,45,16.60
2007,08,09,09,46,16.60
2007,08,09,09,47,16.60
2007,08,09,09,48,16.60
2007,08,09,09,49,16.60
2007,08,09,09,50,16.60
2007,08,09,09,51,16.50
2007,08,09,09,52,16.50
2007,08,09,09,53,16.40
2007,08,09,09,54,16.40
2007,08,09,09,55,16.30
2007,08,09,09,56,16.30
2007,08,09,09,57,16.20
2007,08,09,09,58,16.20
2007,08,09,09,59,16.20
2007,08,09,10,00,16.20
2007,08,09,10,01,16.30
2007,08,09,10,02,16.30
2007,08,09,10,03,16.40
2007,08,09,10,04,16.40
2007,08,09,10,05,16.40
2007,08,09,10,06,16.50
2007,08,09,10,07,16.50
2007,08,09,10,08,16.50
2007,08,09,10,09,16.60
2007,08,09,10,10,16.60
2007,08,09,10,11,16.70
2007,08,09,10,12,16.70
2007,08,09,10,13,16.70
2007,08,09,10,14,16.70
2007,08,09,10,15,16.80
2007,08,09,10,16,16.80
2007,08,09,10,17,16.80
2007,08,09,10,18,16.80
2007,08,09,10,19,16.90
2007,08,09,10,20,17.00
2007,08,09,10,21,17.10
2007,08,09,10,22,17.20
2007,08,09,10,23,17.30
2007,08,09,10,24,17.30
2007,08,09,10,25,17.40
2007,08,09,10,26,17.40
2007,08,09,10,27,17.50
2007,08,09,10,28,17.50
2007,08,09,10,29,17.60
2007,08,09,10,30,17.60
2007,08,09,10,31,17.60
2007,08,09,10,32,17.70
2007,08,09,10,33,17.70
2007,08,09,10,34,17.70
2007,08,09,10,35,17.80
2007,08,09,10,36,17.90
2007,08,09,10,37,18.10
2007,08,09,10,38,18.20
2007,08,09,10,39,18.30
2007,08,09,10,40,18.30
2007,08,09,10,41,18.30
2007,08,09,10,42,18.30
2007,08,09,10,43,18.40
2007,08,09,10,44,18.30
2007,08,09,10,45,18.30
2007,08,09,10,46,18.30
2007,08,09,10,47,18.30
2007,08,09,10,48,18.10
2007,08,09,10,49,18.00
2007,08,09,10,50,18.00
2007,08,09,10,51,18.00
2007,08,09,10,52,18.10
2007,08,09,10,53,18.10
2007,08,09,10,54,18.20
2007,08,09,10,55,18.20
2007,08,09,10,56,18.30
2007,08,09,10,57,18.40
2007,08,09,10,58,18.50
2007,08,09,10,59,18.50
2007,08,09,11,00,18.50
2007,08,09,11,01,18.50
2007,08,09,11,02,18.50
2007,08,09,11,03,18.40
2007,08,09,11,04,18.40
2007,08,09,11,05,18.40
2007,08,09,11,06,18.40
2007,08,09,11,07,18.30
2007,08,09,11,08,18.30
2007,08,09,11,09,18.30
2007,08,09,11,10,18.20
2007,08,09,11,11,18.10
2007,08,09,11,12,18.10
2007,08,09,11,13,18.10
2007,08,09,11,14,18.10
2007,08,09,11,15,18.10
2007,08,09,11,16,18.00
2007,08,09,11,17,18.00
2007,08,09,11,18,17.90
2007,08,09,11,19,17.80
2007,08,09,11,20,17.80
2007,08,09,11,21,17.80
2007,08,09,11,22,17.80
2007,08,09,11,23,17.80
2007,08,09,11,24,17.80
2007,08,09,11,25,17.80
2007,08,09,11,26,17.80
2007,08,09,11,27,17.80
2007,08,09,11,28,17.90
2007,08,09,11,29,18.00
2007,08,09,11,30,18.00
2007,08,09,11,31,18.00
2007,08,09,11,32,18.10
2007,08,09,11,33,18.10
2007,08,09,11,34,18.10
2007,08,09,11,35,18.20
2007,08,09,11,36,18.20
2007,08,09,11,37,18.30
2007,08,09,11,38,18.30
2007,08,09,11,39,18.30
2007,08,09,11,40,18.40
2007,08,09,11,41,18.40
2007,08,09,11,42,18.40
2007,08,09,11,43,18.50
2007,08,09,11,44,18.60
2007,08,09,11,45,18.60
2007,08,09,11,46,18.60
2007,08,09,11,47,18.60
2007,08,09,11,48,18.60
2007,08,09,11,49,18.60
2007,08,09,11,50,18.60
2007,08,09,11,51,18.60
2007,08,09,11,52,18.60
2007,08,09,11,53,18.50
2007,08,09,11,54,18.40
2007,08,09,11,55,18.30
2007,08,09,11,56,18.30
2007,08,09,11,57,18.30
2007,08,09,11,58,18.30
2007,08,09,11,59,18.20
2007,08,09,12,00,18.10
2007,08,09,12,01,18.10
2007,08,09,12,02,18.10
2007,08,09,12,03,18.20
2007,08,09,12,04,18.20
2007,08,09,12,05,18.20
2007,08,09,12,06,18.20
2007,08,09,12,07,18.20
2007,08,09,12,08,18.20
2007,08,09,12,09,18.10
2007,08,09,12,10,18.00
2007,08,09,12,11,17.90
2007,08,09,12,12,17.90
2007,08,09,12,13,17.80
2007,08,09,12,14,17.80
2007,08,09,12,15,17.80
2007,08,09,12,16,17.70
2007,08,09,12,17,17.70
2007,08,09,12,18,17.70
2007,08,09,12,19,17.60
2007,08,09,12,20,17.60
2007,08,09,12,21,17.60
2007,08,09,12,22,17.60
2007,08,09,12,23,17.50
2007,08,09,12,24,17.50
2007,08,09,12,25,17.50
2007,08,09,12,26,17.40
2007,08,09,12,27,17.30
2007,08,09,12,28,17.20
2007,08,09,12,29,17.10
2007,08,09,12,30,17.10
2007,08,09,12,31,17.00
2007,08,09,12,32,17.00
2007,08,09,12,33,16.90
2007,08,09,12,34,16.90
2007,08,09,12,35,16.90
2007,08,09,12,36,17.00
2007,08,09,12,37,17.00
2007,08,09,12,38,17.00
2007,08,09,12,39,17.00
2007,08,09,12,40,17.10
2007,08,09,12,41,17.10
2007,08,09,12,42,17.10
2007,08,09,12,43,17.10
2007,08,09,12,44,17.10
2007,08,09,12,45,17.10
2007,08,09,12,46,17.10
2007,08,09,12,47,17.10
2007,08,09,12,48,17.10
2007,08,09,12,49,17.10
2007,08,09,12,50,17.10
2007,08,09,12,51,17.10
2007,08,09,12,52,17.10
2007,08,09,12,53,17.10
2007,08,09,12,54,17.10
2007,08,09,12,55,17.10
2007,08,09,12,56,17.30
2007,08,09,12,57,17.40
2007,08,09,12,58,17.50
2007,08,09,12,59,17.60
2007,08,09,13,00,17.60
2007,08,09,13,01,17.70
2007,08,09,13,02,17.90
2007,08,09,13,03,17.90
2007,08,09,13,04,17.90
2007,08,09,13,05,17.90
2007,08,09,13,06,17.90
2007,08,09,13,07,17.90
2007,08,09,13,08,17.80
2007,08,09,13,09,17.80
2007,08,09,13,10,17.80
2007,08,09,13,11,17.90
2007,08,09,13,12,17.90
2007,08,09,13,13,17.90
2007,08,09,13,14,17.90
2007,08,09,13,15,17.90
2007,08,09,13,16,17.90
2007,08,09,13,17,17.90
2007,08,09,13,18,18.00
2007,08,09,13,19,18.10
2007,08,09,13,20,18.20
2007,08,09,13,21,18.20
2007,08,09,13,22,18.20
2007,08,09,13,23,18.30
2007,08,09,13,24,18.30
2007,08,09,13,25,18.40
2007,08,09,13,26,18.40
2007,08,09,13,27,18.40
2007,08,09,13,28,18.50
2007,08,09,13,29,18.50
2007,08,09,13,30,18.50
2007,08,09,13,31,18.60
2007,08,09,13,32,18.60
2007,08,09,13,33,18.60
2007,08,09,13,34,18.60
2007,08,09,13,35,18.70
2007,08,09,13,36,18.70
2007,08,09,13,37,18.80
2007,08,09,13,38,18.90
2007,08,09,13,39,18.90
2007,08,09,13,40,19.00
2007,08,09,13,41,19.10
2007,08,09,13,42,19.20
2007,08,09,13,43,19.10
2007,08,09,13,44,19.00
2007,08,09,13,45,19.00
2007,08,09,13,46,19.00
2007,08,09,13,47,18.90
2007,08,09,13,48,18.80
2007,08,09,13,49,18.80
2007,08,09,13,50,18.70
2007,08,09,13,51,18.70
2007,08,09,13,52,18.70
2007,08,09,13,53,18.60
2007,08,09,13,54,18.50
2007,08,09,13,55,18.60
2007,08,09,13,56,18.60
2007,08,09,13,57,18.80
2007,08,09,13,58,18.90
2007,08,09,13,59,19.00
2007,08,09,14,00,19.20
2007,08,09,14,01,19.40
2007,08,09,14,02,19.60
2007,08,09,14,03,19.70
2007,08,09,14,04,19.70
2007,08,09,14,05,19.70
2007,08,09,14,06,19.80
2007,08,09,14,07,20.00
2007,08,09,14,08,20.00
2007,08,09,14,09,20.00
2007,08,09,14,10,20.10
2007,08,09,14,11,20.00
2007,08,09,14,12,19.90
2007,08,09,14,13,19.90
2007,08,09,14,14,19.90
2007,08,09,14,15,19.80
2007,08,09,14,16,19.70
2007,08,09,14,17,19.70
2007,08,09,14,18,19.60
2007,08,09,14,19,19.60
2007,08,09,14,20,19.50
2007,08,09,14,21,19.50
2007,08,09,14,22,19.40
2007,08,09,14,23,19.40
2007,08,09,14,24,19.40
2007,08,09,14,25,19.50
2007,08,09,14,26,19.50
2007,08,09,14,27,19.50
2007,08,09,14,28,19.50
2007,08,09,14,29,19.60
2007,08,09,14,30,19.70
2007,08,09,14,31,19.70
2007,08,09,14,32,19.60
2007,08,09,14,33,19.60
2007,08,09,14,34,19.60
2007,08,09,14,35,19.50
2007,08,09,14,36,19.50
2007,08,09,14,37,19.60
2007,08,09,14,38,19.60
2007,08,09,14,39,19.60
2007,08,09,14,40,19.60
2007,08,09,14,41,19.50
2007,08,09,14,42,19.50
2007,08,09,14,43,19.50
2007,08,09,14,44,19.50
2007,08,09,14,45,19.50
2007,08,09,14,46,19.40
2007,08,09,14,47,19.20
2007,08,09,14,48,19.20
2007,08,09,14,49,19.00
2007,08,09,14,50,18.90
2007,08,09,14,51,18.90
2007,08,09,14,52,18.90
2007,08,09,14,53,18.90
2007,08,09,14,54,18.80
2007,08,09,14,55,18.80
2007,08,09,14,56,18.80
2007,08,09,14,57,18.80
2007,08,09,14,58,18.80
2007,08,09,14,59,18.80
2007,08,09,15,00,18.90
2007,08,09,15,01,18.90
2007,08,09,15,02,18.90
2007,08,09,15,03,18.90
2007,08,09,15,04,18.90
2007,08,09,15,05,18.90
2007,08,09,15,06,18.90
2007,08,09,15,07,19.00
2007,08,09,15,08,19.00
2007,08,09,15,09,19.00
2007,08,09,15,10,19.10
2007,08,09,15,11,19.10
2007,08,09,15,12,19.10
2007,08,09,15,13,19.20
2007,08,09,15,14,19.10
2007,08,09,15,15,19.10
2007,08,09,15,16,19.00
2007,08,09,15,17,19.00
2007,08,09,15,18,19.10
2007,08,09,15,19,19.20
2007,08,09,15,20,19.20
2007,08,09,15,21,19.20
2007,08,09,15,22,19.20
2007,08,09,15,23,19.30
2007,08,09,15,24,19.20
2007,08,09,15,25,19.20
2007,08,09,15,26,19.20
2007,08,09,15,27,19.20
2007,08,09,15,28,19.20
2007,08,09,15,29,19.30
2007,08,09,15,30,19.30
2007,08,09,15,31,19.30
2007,08,09,15,32,19.40
2007,08,09,15,33,19.50
2007,08,09,15,34,19.60
2007,08,09,15,35,19.80
2007,08,09,15,36,19.80
2007,08,09,15,37,19.90
2007,08,09,15,38,19.90
2007,08,09,15,39,20.00
2007,08,09,15,40,20.00
2007,08,09,15,41,20.00
2007,08,09,15,42,20.10
2007,08,09,15,43,20.10
2007,08,09,15,44,20.10
2007,08,09,15,45,20.10
2007,08,09,15,46,20.10
2007,08,09,15,47,20.10
2007,08,09,15,48,20.10
2007,08,09,15,49,20.10
2007,08,09,15,50,20.10
2007,08,09,15,51,20.10
2007,08,09,15,52,20.20
2007,08,09,15,53,20.20
2007,08,09,15,54,20.20
2007,08,09,15,55,20.20
2007,08,09,15,56,20.10
2007,08,09,15,57,20.10
2007,08,09,15,58,20.10
2007,08,09,15,59,20.10
2007,08,09,16,00,20.10
2007,08,09,16,01,20.10
2007,08,09,16,02,20.10
2007,08,09,16,03,20.20
2007,08,09,16,04,20.20
2007,08,09,16,05,20.30
2007,08,09,16,06,20.30
2007,08,09,16,07,20.30
2007,08,09,16,08,20.30
2007,08,09,16,09,20.30
2007,08,09,16,10,20.30
2007,08,09,16,11,20.30
2007,08,09,16,12,20.30
2007,08,09,16,13,20.40
2007,08,09,16,14,20.40
2007,08,09,16,15,20.50
2007,08,09,16,16,20.60
2007,08,09,16,17,20.60
2007,08,09,16,18,20.70
2007,08,09,16,19,20.70
2007,08,09,16,20,20.70
2007,08,09,16,21,20.70
2007,08,09,16,22,20.70
2007,08,09,16,23,20.70
2007,08,09,16,24,20.70
2007,08,09,16,25,20.70
2007,08,09,16,26,20.70
2007,08,09,16,27,20.70
2007,08,09,16,28,20.60
2007,08,09,16,29,20.60
2007,08,09,16,30,20.50
2007,08,09,16,31,20.50
2007,08,09,16,32,20.50
2007,08,09,16,33,20.40
2007,08,09,16,34,20.40
2007,08,09,16,35,20.30
2007,08,09,16,36,20.30
2007,08,09,16,37,20.30
2007,08,09,16,38,20.30
2007,08,09,16,39,20.30
2007,08,09,16,40,20.30
2007,08,09,16,41,20.40
2007,08,09,16,42,20.40
2007,08,09,16,43,20.50
2007,08,09,16,44,20.60
2007,08,09,16,45,20.70
2007,08,09,16,46,20.80
2007,08,09,16,47,20.90
2007,08,09,16,48,21.10
2007,08,09,16,49,21.20
2007,08,09,16,50,21.30
2007,08,09,16,51,21.40
2007,08,09,16,52,21.40
2007,08,09,16,53,21.50
2007,08,09,16,54,21.50
2007,08,09,16,55,21.60
2007,08,09,16,56,21.60
2007,08,09,16,57,21.50
2007,08,09,16,58,21.40
2007,08,09,16,59,21.40
2007,08,09,17,00,21.30
2007,08,09,17,01,21.30
2007,08,09,17,02,21.40
2007,08,09,17,03,21.40
2007,08,09,17,04,21.40
2007,08,09,17,05,21.50
2007,08,09,17,06,21.60
2007,08,09,17,07,21.60
2007,08,09,17,08,21.60
2007,08,09,17,09,21.60
2007,08,09,17,10,21.60
2007,08,09,17,11,21.60
2007,08,09,17,12,21.70
2007,08,09,17,13,21.70
2007,08,09,17,14,21.80
2007,08,09,17,15,21.80
2007,08,09,17,16,21.80
2007,08,09,17,17,21.70
2007,08,09,17,18,21.70
2007,08,09,17,19,21.80
2007,08,09,17,20,21.80
2007,08,09,17,21,21.80
2007,08,09,17,22,21.80
2007,08,09,17,23,21.80
2007,08,09,17,24,21.80
2007,08,09,17,25,21.80
2007,08,09,17,26,21.70
2007,08,09,17,27,21.70